Volver al catálogo

METEOR 2-17 DEB

LostPO
NORAD 38655·DEBRIS·🇷🇺 Russia

Lanzado Jan 30, 1988 desde Plesetsk Cosmodrome

Loading…

Próximos Pases (próximas 24 horas)

TLE

ObsoletoSource: Space-Track

Época: Jun 4, 2024, 02:04 UTC

1 38655U 88005AY  24156.08625597  .00009332  00000-0  48601-2 0  9996
2 38655  82.5248  79.2946 0028127 349.3916  10.6664 14.14272092900486

Sigue METEOR 2-17 DEB en tiempo real con AllMySat

Download on the App Store